Weather History for Northeast Philadelphia, PA

Change the Weather History Date:

Sunday, March 17, 2013

  Actual Average Record
Temperature  
Mean Temperature 34 °F -  
Max Temperature 39 °F 48 °F 71 °F (2003)
Min Temperature 28 °F 31 °F 19 °F (1997)
Degree Days  
Heating Degree Days 32    
Moisture  
Dew Point 23 °F    
Average Humidity 66    
Maximum Humidity 93    
Minimum Humidity 43    
Precipitation  
Precipitation 0.00 in - - ()
Sea Level Pressure  
Sea Level Pressure 30.13 in    
Wind  
Wind Speed 7 mph (NNW)    
Max Wind Speed 14 mph    
Max Gust Speed 18 mph    
Visibility 10 miles    
Events      
Averages and records for this station are not official NWS values.
T = Trace of Precipitation, MM = Missing Value Source: NWS Daily Summary

Daily Weather History Graph

Daily Weather History Graph

Search for Another Location

Airport:

Trip Planner

Search our weather history database for the weather conditions in past years. The results will help you decide how hot, cold, wet, or windy it might be!

Date:

Astronomy

Mar. 17, 2013 Rise Set
Actual Time 7:07 AM EDT 7:09 PM EDT
Civil Twilight 6:40 AM EDT 7:36 PM EDT
Nautical Twilight 6:09 AM EDT 8:07 PM EDT
Astronomical Twilight 5:37 AM EDT 8:39 PM EDT
Moon 10:18 AM EDT (3/17) 12:15 AM EDT (3/17)
Length of Visible Light 12h 55m
Length of Day
12h 01m
Waxing Crescent, 31% of the Moon is Illuminated
Mar 17
Waxing Crescent
Mar 19
First Quarter
Mar 27
Full
Apr 3
Last Quarter
Apr 10
New

Hourly Weather History & Observations

Time (EDT) Temp. Windchill Dew Point Humidity Pressure Visibility Wind Dir Wind Speed Gust Speed Precip Events Conditions
12:54 AM 34.0 °F 28.0 °F 30.9 °F 89% 29.95 in 8.0 mi NNW 6.9 mph - N/A   Overcast
1:37 AM 33.8 °F 29.6 °F 30.2 °F 87% 29.94 in 8.0 mi NNW 4.6 mph - N/A   Overcast
1:54 AM 33.1 °F 28.7 °F 30.0 °F 89% 29.95 in 8.0 mi NW 4.6 mph - N/A   Mostly Cloudy
2:34 AM 32.0 °F 26.4 °F 30.2 °F 93% 29.95 in 7.0 mi NNW 5.8 mph - N/A   Mostly Cloudy
2:45 AM 32.0 °F 26.4 °F 30.2 °F 93% 29.96 in 7.0 mi NNW 5.8 mph - N/A   Scattered Clouds
2:54 AM 32.0 °F 25.6 °F 30.0 °F 92% 29.97 in 7.0 mi NNW 6.9 mph - N/A   Partly Cloudy
3:54 AM 32.0 °F 25.6 °F 28.9 °F 88% 29.99 in 9.0 mi NNW 6.9 mph - N/A   Clear
4:54 AM 30.0 °F 24.1 °F 27.0 °F 88% 30.00 in 10.0 mi NNW 5.8 mph - N/A   Clear
5:54 AM 30.0 °F 25.2 °F 25.0 °F 82% 30.03 in 10.0 mi NNW 4.6 mph - N/A   Clear
6:54 AM 28.9 °F 23.9 °F 23.0 °F 78% 30.08 in 10.0 mi NW 4.6 mph - N/A   Clear
7:54 AM 30.9 °F 22.2 °F 23.0 °F 72% 30.12 in 10.0 mi NNW 10.4 mph - N/A   Clear
8:54 AM 33.1 °F 26.1 °F 23.0 °F 66% 30.16 in 10.0 mi North 8.1 mph - N/A   Clear
9:33 AM 33.8 °F 25.3 °F 23.0 °F 65% 30.17 in 10.0 mi North 11.5 mph - N/A   Mostly Cloudy
9:40 AM 33.8 °F 25.3 °F 23.0 °F 65% 30.17 in 10.0 mi NNE 11.5 mph - N/A   Scattered Clouds
9:51 AM 33.8 °F 26.4 °F 23.0 °F 65% 30.18 in 10.0 mi North 9.2 mph - N/A   Mostly Cloudy
9:54 AM 33.1 °F 26.1 °F 23.0 °F 66% 30.18 in 10.0 mi North 8.1 mph - N/A   Mostly Cloudy
10:01 AM 33.8 °F 24.3 °F 23.0 °F 65% 30.17 in 10.0 mi North 13.8 mph 18.4 mph N/A   Mostly Cloudy
10:54 AM 34.0 °F 24.6 °F 19.9 °F 56% 30.16 in 10.0 mi North 13.8 mph - N/A   Clear
11:54 AM 34.0 °F 26.6 °F 19.0 °F 54% 30.18 in 10.0 mi NNW 9.2 mph - N/A   Clear
12:54 PM 35.1 °F 29.3 °F 18.0 °F 50% 30.19 in 10.0 mi North 6.9 mph - N/A   Clear
1:54 PM 37.0 °F 30.4 °F 19.0 °F 48% 30.19 in 10.0 mi WNW 9.2 mph - N/A   Partly Cloudy
2:54 PM 37.9 °F 30.9 °F 19.9 °F 48% 30.17 in 10.0 mi NNW 10.4 mph - N/A   Clear
3:54 PM 39.9 °F 32.1 °F 19.0 °F 43% 30.18 in 10.0 mi NNW 13.8 mph - N/A   Clear
4:54 PM 37.9 °F 32.1 °F 18.0 °F 45% 30.19 in 10.0 mi NW 8.1 mph - N/A   Clear
5:54 PM 37.9 °F 31.5 °F 17.1 °F 43% 30.21 in 10.0 mi North 9.2 mph - N/A   Clear
6:54 PM 37.0 °F 30.4 °F 17.1 °F 44% 30.24 in 10.0 mi North 9.2 mph - N/A   Clear
7:54 PM 36.0 °F 30.3 °F 17.1 °F 46% 30.27 in 10.0 mi North 6.9 mph - N/A   Clear
8:54 PM 34.0 °F 31.0 °F 17.1 °F 50% 30.28 in 10.0 mi NNE 3.5 mph - N/A   Clear
9:54 PM 32.0 °F 26.4 °F 18.0 °F 56% 30.31 in 10.0 mi North 5.8 mph - N/A   Clear
10:54 PM 32.0 °F 26.4 °F 17.1 °F 54% 30.31 in 10.0 mi North 5.8 mph - N/A   Clear
11:54 PM 30.0 °F 26.5 °F 18.0 °F 61% 30.32 in 10.0 mi North 3.5 mph - N/A   Clear